Location: Newark
(48.8481°N, 20.9372°E)
Time: 04:26:48
(UTC+00:00)

KKS-1 - Visible Passes

Search period start: 02 April 2020 00:00
Search period end: 12 April 2020 00:00
Orbit: 637 x 650 km, 98.3° (Epoch: 01 April)

Date Brightness Start Highest point End Pass type
(mag) Time Alt. Az. Time Alt. Az. Time Alt. Az.
02 Apr ? 19:01:30 10° N 19:05:58 70° WNW 19:10:24 10° SSW visible
02 Apr ? 20:40:37 10° NW 20:41:41 11° NW 20:42:45 10° WNW visible
03 Apr ? 17:50:00 10° NE 17:53:42 25° E 17:57:22 10° SSE visible
03 Apr ? 19:26:10 10° N 19:30:22 41° WNW 19:34:34 10° SW visible
04 Apr ? 18:14:05 10° NNE 18:18:21 41° E 18:22:34 10° S visible
04 Apr ? 19:51:00 10° N 19:54:42 26° WNW 19:58:23 10° WSW visible
05 Apr ? 18:38:25 10° NNE 18:42:55 71° ESE 18:47:23 10° S visible
05 Apr ? 20:16:07 10° NNW 20:18:56 17° WNW 20:21:46 10° W visible
06 Apr ? 19:02:56 10° N 19:07:24 69° WNW 19:11:51 10° SSW visible
06 Apr ? 20:42:07 10° NW 20:43:06 11° NW 20:44:05 10° WNW visible
07 Apr ? 17:51:24 10° NE 17:55:07 25° E 17:58:50 10° SSE visible
07 Apr ? 19:27:35 10° N 19:31:48 41° WNW 19:36:00 10° SW visible
08 Apr ? 18:15:30 10° NNE 18:19:46 42° E 18:24:01 10° S visible
08 Apr ? 19:52:26 10° N 19:56:07 26° WNW 19:59:48 10° WSW visible
09 Apr ? 18:39:50 10° NNE 18:44:20 72° ESE 18:48:49 10° S visible
09 Apr ? 20:17:33 10° NNW 20:20:22 17° WNW 20:23:09 10° W visible
10 Apr ? 19:04:21 10° N 19:08:50 68° WNW 19:13:16 10° SSW visible
10 Apr ? 20:43:38 10° NW 20:44:31 11° NW 20:45:24 10° WNW visible
11 Apr ? 17:52:49 10° NE 17:56:33 25° E 18:00:17 10° SSE visible
11 Apr ? 19:29:01 10° N 19:33:13 40° WNW 19:37:24 10° SW visible
